TimeMST,TemperatureF,Dew PointF,Humidity,Sea Level PressureIn,VisibilityMPH,Wind Direction,Wind SpeedMPH,Gust SpeedMPH,PrecipitationIn,Events,Conditions,WindDirDegrees,DateUTC
5:00 AM,17,9,58,29.38,15,SSE,4.6,,,,Overcast,150,2012-12-17 12:00:00
5:00 AM,15.8,8.6,73,29.38,15.0,SSE,4.6,-,N/A,,Overcast,150,2012-12-17 12:00:00
6:00 AM,15.8,10.4,79,29.35,15.0,East,4.6,-,N/A,,Overcast,90,2012-12-17 13:00:00
7:00 AM,17.6,14.0,86,29.35,15.0,East,5.8,-,N/A,,Overcast,100,2012-12-17 14:00:00
8:00 AM,17.6,15.8,93,29.33,15.0,ESE,8.1,-,N/A,,Overcast,120,2012-12-17 15:00:00
9:00 AM,19.4,15.8,86,29.33,20.0,SE,9.2,-,N/A,,Mostly Cloudy,140,2012-12-17 16:00:00
10:00 AM,19.4,15.8,86,29.32,15.0,SSE,5.8,-,N/A,,Mostly Cloudy,160,2012-12-17 17:00:00
10:12 AM,19.4,15.8,86,29.33,20.0,South,3.5,-,N/A,,Overcast,190,2012-12-17 17:12:00
10:44 AM,19.4,17.6,93,29.32,20.0,South,4.6,-,N/A,,Overcast,170,2012-12-17 17:44:00
11:00 AM,21,18,83,29.31,10,South,4.6,,,,Overcast,170,2012-12-17 18:00:00
11:46 AM,21.2,17.6,86,29.30,20.0,SSE,3.5,-,N/A,,Overcast,160,2012-12-17 18:46:00
12:00 PM,21.2,17.6,86,29.30,20.0,SE,4.6,-,N/A,,Mostly Cloudy,140,2012-12-17 19:00:00
1:00 PM,21.2,17.6,86,29.30,30.0,Calm,Calm,-,N/A,,Mostly Cloudy,0,2012-12-17 20:00:00
2:00 PM,21.2,17.6,86,29.31,30.0,Calm,Calm,-,N/A,,Mostly Cloudy,0,2012-12-17 21:00:00
6:00 PM,17.6,15.8,93,29.41,8.0,NNE,2.3,-,N/A,,Mostly Cloudy,20,2012-12-18 01:00:00
6:48 PM,15.8,14.0,93,29.43,4.0,NW,3.5,-,N/A,,Mostly Cloudy,320,2012-12-18 01:48:00
7:00 PM,15.8,14.0,93,29.43,5.0,NNW,3.5,-,N/A,,Mostly Cloudy,330,2012-12-18 02:00:00
7:15 PM,15.8,14.0,93,29.45,4.0,WNW,4.6,-,N/A,,Overcast,290,2012-12-18 02:15:00
8:00 PM,17.6,15.8,93,29.45,6.0,NW,8.1,-,N/A,,Overcast,320,2012-12-18 03:00:00
9:00 PM,17.6,15.8,93,29.47,15.0,NW,5.8,-,N/A,,Overcast,320,2012-12-18 04:00:00
10:00 PM,19.4,15.8,86,29.32,15.0,North,11.5,-,N/A,,Overcast,350,2012-12-18 05:00:00